[Iaude] MPEC S59: 2016 SX1 [a=0.88,e=0.14,i=2.8,H=28.4]

mpec at si.edu mpec at si.edu
Thu Sep 29 15:17:59 EDT 2016


M.P.E.C. 2016-S59                                Issued 2016 Sept. 27, 00:02 UT
 
     The Minor Planet Electronic Circulars contain information on unusual
         minor planets and routine data on comets.  They are published
    on behalf of Division F of the International Astronomical Union by the
          Minor Planet Center, Smithsonian Astrophysical Observatory,
                          Cambridge, MA 02138, U.S.A.

             Prepared using the Tamkin Foundation Computer Network

                              MPC at CFA.HARVARD.EDU
            URL http://www.minorplanetcenter.net/    ISSN 1523-6714


                                   2016 SX1
 
Observations:
     K16S01X* C2016 09 25.36221 02 14 14.05 +18 00 08.3          18.4 VqES059703
     K16S01X  C2016 09 25.37428 02 13 23.66 +18 02 49.8          18.4 VqES059703
     K16S01X  C2016 09 25.38031 02 12 58.34 +18 04 10.3          19.0 VqES059703
     K16S01X  C2016 09 25.41223 02 10 44.93 +18 10 59.2          19.0 VqES059703
     K16S01X  C2016 09 25.41323 02 10 40.46 +18 11 11.9          18.3 VqES059703
     K16S01X  C2016 09 25.41423 02 10 36.42 +18 11 24.9          18.6 VqES059703
     K16S01X  C2016 09 25.41524 02 10 32.13 +18 11 37.6          18.7 VqES059703
     K16S01X  C2016 09 26.24401 01 17 35.87 +20 50 25.5          18.5 VqES059G96
     K16S01X  C2016 09 26.24417 01 17 35.12 +20 50 27.9          18.5 VqES059G96
     K16S01X  C2016 09 26.24430 01 17 34.54 +20 50 29.2          18.4 VqES059G96
     K16S01X  C2016 09 26.24442 01 17 33.95 +20 50 30.6          18.5 VqES059G96
     K16S01X KC2016 09 26.88006 00 32 23.13 +22 06 49.2          18.2 RqES059104
     K16S01X KC2016 09 26.88413 00 32 03.88 +22 07 17.7          18.3 RqES059104
     K16S01X KC2016 09 26.89126 00 31 30.00 +22 08 06.3          18.3 RqES059104
 
Observer details:
104 San Marcello Pistoiese.  Observers P. Bacci, M. Maestripieri.  Measurers
    P. Bacci, L. Tesi, G. Fagioli.  0.60-m f/4 reflector + CCD.
703 Catalina Sky Survey.  Observer R. G. Matheny.  Measurers E. J. Christensen,
    D. C. Fuls, A. R. Gibbs, A. D. Grauer, J. A. Johnson, R. A. Kowalski,
    S. M. Larson, G. J. Leonard, R. G. Matheny, R. L. Seaman, F. C. Shelly.
    0.68-m Schmidt + CCD.
G96 Mt. Lemmon Survey.  Observer E. J. Christensen.  Measurers
    E. J. Christensen, D. C. Fuls, A. R. Gibbs, A. D. Grauer, J. A. Johnson,
    R. A. Kowalski, S. M. Larson, G. J. Leonard, R. G. Matheny, R. L. Seaman,
    F. C. Shelly.  1.5-m reflector + 10K CCD.
 
Orbital elements:
2016 SX1                                                 Earth MOID = 0.0040 AU
Epoch 2016 July 31.0 TT = JDT 2457600.5                 MPC
M 111.24299              (2000.0)            P               Q
n   1.18695563     Peri.  181.53530     -0.99740342     +0.07198309
a   0.8834454      Node     2.59568     -0.06554446     -0.89465290
e   0.1406723      Incl.    2.79058     -0.02983875     -0.44092474
P   0.83           H   28.4           G   0.15           U   7
Residuals in seconds of arc
160925 703  1.4+  0.2+    160925 703  1.2+  0.3+    160926 G96  0.1+  0.1+
160925 703  0.7-  0.2+    160925 703  0.5+  0.3+    160926 104  0.3+  0.3+
160925 703 (2.8-  1.0+)   160926 G96  0.2+  0.2-    160926 104  0.5+  0.4+
160925 703 (2.7+  0.4-)   160926 G96  0.2+  0.3+    160926 104  0.3-  0.0
160925 703  1.1-  0.2-    160926 G96  0.5+  0.1+

Ephemeris:
2016 SX1                 a,e,i = 0.88, 0.14, 3                   q = 0.7592
Date    TT    R. A. (2000) Decl.     Delta      r     Elong.  Phase     V
2016 08 28    06 27 40.0 -04 57 05   0.04437 0.9896    61.4   116.4    26.2
...
2016 09 12    05 55 46.4 -02 15 24   0.02314 1.0033    81.5    97.1    23.7
...
2016 09 20    04 59 49.6 +03 43 16   0.01180 1.0068   102.4    76.9    21.5
...
2016 09 26    01 33 23.4 +20 15 03   0.0056941.0076   152.4    27.5    18.4
2016 09 27    00 23 07.1 +22 27 32   0.0056241.0076   159.1    20.8    18.2
2016 09 28    23 15 09.1 +22 44 37   0.0059871.0074   154.2    25.7    18.5
...
2016 10 04    20 09 56.4 +14 17 10   0.01283 1.0053   112.8    66.6    21.3
...
2016 10 12    19 21 05.8 +09 54 01   0.02437 1.0000    94.1    84.5    23.3
...
2016 10 27    18 55 25.3 +07 24 28   0.04521 0.9828    74.6   102.8    25.4

A. U. Tomatic                (C) Copyright 2016 MPC           M.P.E.C. 2016-S59




More information about the Iaude mailing list